Weather History for PAHO - May, 2013

Change the Weather History Date:

Wednesday, May 15, 2013

  Actual Average Record
Temperature  
Mean Temperature 38 °F -  
Max Temperature 48 °F 49 °F 69 °F (2014)
Min Temperature 28 °F 36 °F 22 °F (1945)
Degree Days  
Heating Degree Days 27    
Moisture  
Dew Point 26 °F    
Average Humidity 58    
Maximum Humidity 85    
Minimum Humidity 34    
Precipitation  
Precipitation 0.00 in - - ()
Sea Level Pressure  
Sea Level Pressure 29.72 in    
Wind  
Wind Speed 4 mph (East)    
Max Wind Speed 13 mph    
Max Gust Speed 21 mph    
Visibility 10 miles    
Events Rain    
Averages and records for this station are not official NWS values.
T = Trace of Precipitation, MM = Missing Value Source: NWS Daily Summary

Daily Weather History Graph

Daily Weather History Graph

Search for Another Location

Airport or City:

Trip Planner

Search our weather history database for the weather conditions in past years. The results will help you decide how hot, cold, wet, or windy it might be!

Date:

Astronomy

May. 15, 2013 Rise Set
Actual Time 5:29 AM AKDT 10:36 PM AKDT
Civil Twilight 4:27 AM AKDT 11:39 PM AKDT
Nautical Twilight 2:34 AM AKDT 1:29 AM AKDT
Astronomical Twilight Sun does not set Sun does not set
Moon 10:33 AM AKDT (5/15) 2:12 AM AKDT (5/15)
Length of Visible Light 19h 12m
Length of Day
17h 06m
Waxing Crescent, 28% of the Moon is Illuminated
May 15
Waxing Crescent
May 17
First Quarter
May 24
Full
May 31
Last Quarter
Jun 8
New

Hourly Weather History & Observations

Time (AKDT) Temp. Windchill Dew Point Humidity Pressure Visibility Wind Dir Wind Speed Gust Speed Precip Events Conditions
12:53 AM 34.0 °F 28.8 °F 27.0 °F 75% 29.68 in 10.0 mi NNE 5.8 mph - N/A   Clear
1:53 AM 34.0 °F 31.0 °F 27.0 °F 75% 29.69 in 10.0 mi North 3.5 mph - N/A   Clear
2:53 AM 32.0 °F - 26.1 °F 79% 29.70 in 10.0 mi Calm Calm - N/A   Clear
3:53 AM 28.9 °F - 25.0 °F 85% 29.70 in 10.0 mi Calm Calm - N/A   Clear
4:53 AM 30.9 °F - 25.0 °F 79% 29.71 in 10.0 mi Calm Calm - N/A   Clear
5:53 AM 30.9 °F - 25.0 °F 79% 29.71 in 10.0 mi Calm Calm - N/A   Clear
6:53 AM 32.0 °F - 25.0 °F 75% 29.72 in 10.0 mi Calm Calm - N/A   Clear
7:53 AM 37.0 °F 34.5 °F 28.0 °F 70% 29.72 in 10.0 mi NE 3.5 mph - N/A   Clear
8:53 AM 39.0 °F 33.4 °F 28.9 °F 67% 29.72 in 10.0 mi ENE 8.1 mph - N/A   Clear
9:53 AM 43.0 °F 38.8 °F 26.1 °F 51% 29.73 in 10.0 mi ENE 6.9 mph - N/A   Clear
10:53 AM 44.1 °F 40.8 °F 21.9 °F 42% 29.73 in 10.0 mi ESE 5.8 mph - N/A   Clear
11:53 AM 45.0 °F 41.8 °F 18.0 °F 34% 29.73 in 10.0 mi East 5.8 mph - N/A   Clear
12:53 PM 46.9 °F - 19.9 °F 34% 29.73 in 10.0 mi ESE 6.9 mph - N/A   Scattered Clouds
1:53 PM 48.0 °F - 21.9 °F 36% 29.74 in 10.0 mi East 9.2 mph - N/A   Mostly Cloudy
2:53 PM 46.9 °F - 26.1 °F 44% 29.75 in 10.0 mi SE 12.7 mph 16.1 mph N/A   Mostly Cloudy
3:53 PM 46.0 °F 40.6 °F 26.1 °F 46% 29.75 in 10.0 mi ESE 11.5 mph 20.7 mph N/A   Overcast
4:53 PM 45.0 °F 40.6 °F 26.1 °F 48% 29.75 in 10.0 mi SSE 8.1 mph - N/A   Overcast
5:53 PM 44.1 °F 38.6 °F 28.9 °F 55% 29.75 in 10.0 mi South 10.4 mph 19.6 mph 0.00 in Rain Light Rain
6:53 PM 45.0 °F 42.6 °F 28.0 °F 52% 29.74 in 10.0 mi NE 4.6 mph - 0.00 in   Overcast
7:53 PM 45.0 °F 42.6 °F 27.0 °F 49% 29.73 in 10.0 mi SE 4.6 mph - N/A   Mostly Cloudy
8:53 PM 44.1 °F 40.8 °F 26.1 °F 49% 29.72 in 10.0 mi East 5.8 mph - N/A   Overcast
9:53 PM 42.1 °F - 26.1 °F 53% 29.71 in 10.0 mi Calm Calm - N/A   Overcast
10:53 PM 42.1 °F - 26.1 °F 53% 29.71 in 10.0 mi Calm Calm - N/A   Overcast
11:53 PM 43.0 °F 41.3 °F 28.0 °F 56% 29.70 in 10.0 mi North 3.5 mph - N/A   Overcast